DW9945 Weather Reports


Display with metric or nautical units.
time (UTC)temp
F
wind
direction
speed
MPH
gust
MPH
rain 1hr
in
rain 24hr
in
rain mn
in
humidity
%
barometer
mb
20260506135006 63 12 3.0 9.0 0.00 0.00 0.00 39 1012.0
20260506134506 63 325 6.0 10.0 0.00 0.00 0.00 39 1012.0
20260506134007 64 24 3.0 7.0 0.00 0.00 0.00 37 1012.1
20260506133007 63 203 5.0 7.0 0.00 0.00 0.00 36 1012.3
20260506132508 64 189 3.0 6.0 0.00 0.00 0.00 36 1012.3
20260506131506 64 140 2.0 8.0 0.00 0.00 0.00 36 1012.5
20260506131006 63 157 3.0 6.0 0.00 0.00 0.00 37 1012.5
20260506130506 63 60 4.0 8.0 0.00 0.00 0.00 37 1012.5
20260506130007 63 65 4.0 6.0 0.00 0.00 0.00 38 1012.5
20260506125007 62 61 5.0 10.0 0.00 0.00 0.00 37 1012.7
20260506124507 63 87 3.0 7.0 0.00 0.00 0.00 38 1012.8
20260506123507 62 56 2.0 5.0 0.00 0.00 0.00 39 1012.7
20260506123007 63 226 3.0 7.0 0.00 0.00 0.00 38 1012.8
20260506122507 63 285 5.0 7.0 0.00 0.00 0.00 42 1012.8
20260506122007 62 289 2.0 3.0 0.00 0.00 0.00 40 1012.9
20260506121006 61 266 2.0 8.0 0.00 0.00 0.00 42 1013.2
20260506120506 61 324 6.0 10.0 0.00 0.00 0.00 42 1013.2
20260506120007 61 114 3.0 6.0 0.00 0.00 0.00 42 1013.1
20260506115506 62 20 3.0 6.0 0.00 0.00 0.00 44 1013.2
20260506115007 61 155 3.0 7.0 0.00 0.00 0.00 43 1013.2
20260506114507 60 116 5.0 9.0 0.00 0.00 0.00 43 1013.2
20260506113506 60 19 5.0 8.0 0.00 0.00 0.00 44 1013.3
20260506113007 61 68 5.0 8.0 0.00 0.00 0.00 44 1013.3
20260506112507 60 233 1.0 5.0 0.00 0.00 0.00 43 1013.4
20260506111507 60 102 4.0 9.0 0.00 0.00 0.00 44 1013.5
20260506111007 60 112 5.0 10.0 0.00 0.00 0.00 44 1013.5
20260506110007 60 11 1.0 5.0 0.00 0.00 0.00 47 1013.5
20260506105506 59 14 1.0 6.0 0.00 0.00 0.00 47 1013.6
20260506105006 59 23 3.0 10.0 0.00 0.00 0.00 47 1013.6
20260506104006 58 292 3.0 6.0 0.00 0.00 0.00 46 1013.4
20260506103506 58 337 2.0 6.0 0.00 0.00 0.00 45 1013.5
20260506103006 58 69 5.0 10.0 0.00 0.00 0.00 48 1013.6
20260506102507 57 52 3.0 10.0 0.00 0.00 0.00 52 1013.6
20260506102008 57 333 6.0 9.0 0.00 0.00 0.00 51 1013.7
20260506101008 57 27 3.0 8.0 0.00 0.00 0.00 51 1013.9
20260506100508 57 11 3.0 7.0 0.00 0.00 0.00 52 1013.9
20260506100008 57 154 5.0 8.0 0.00 0.00 0.00 51 1013.9
20260506095508 57 356 2.0 5.0 0.00 0.00 0.00 52 1013.9
20260506095008 57 9 3.0 9.0 0.00 0.00 0.00 52 1013.9
20260506094008 57 64 2.0 6.0 0.00 0.00 0.00 53 1014.0
20260506093508 56 45 2.0 12.0 0.00 0.00 0.00 54 1013.9
20260506093008 56 133 6.0 9.0 0.00 0.00 0.00 53 1013.9
20260506092508 56 11 2.0 6.0 0.00 0.00 0.00 56 1013.9
20260506092008 56 148 3.0 7.0 0.00 0.00 0.00 53 1013.9
20260506091508 56 64 4.0 8.0 0.00 0.00 0.00 54 1013.9
20260506091008 55 43 3.0 7.0 0.00 0.00 0.00 54 1014.0
20260506090008 55 104 5.0 8.0 0.00 0.00 0.00 57 1014.1
20260506085508 55 107 7.0 9.0 0.00 0.00 0.00 56 1014.1
20260506085008 55 68 4.0 9.0 0.00 0.00 0.00 59 1014.0
20260506084508 55 123 5.0 10.0 0.00 0.00 0.00 59 1013.9
20260506083508 54 62 3.0 10.0 0.00 0.00 0.00 60 1013.9
20260506083008 54 60 4.0 7.0 0.00 0.00 0.00 60 1014.0
20260506082508 53 104 6.0 10.0 0.00 0.00 0.00 62 1013.9
20260506080508 52 58 2.0 5.0 0.00 0.00 0.00 67 1014.1
20260506073008 50 96 3.0 3.0 0.00 0.00 0.00 69 1014.0
20260506072507 50 41 2.0 5.0 0.00 0.00 0.00 70 1014.1
20260506072008 50 26 3.0 7.0 0.00 0.00 0.00 70 1014.0
20260506071508 49 47 3.0 8.0 0.00 0.00 0.00 72 1014.0
20260506071008 49 11 4.0 9.0 0.00 0.00 0.00 73 1014.0
20260506070508 48 41 3.0 8.0 0.00 0.00 0.00 74 1014.0
20260506062508 46 10 3.0 5.0 0.00 0.00 0.00 79 1013.6
20260506062008 45 14 3.0 7.0 0.00 0.00 0.00 79 1013.6
20260506061508 45 5 4.0 5.0 0.00 0.00 0.00 79 1013.6
20260506061007 45 350 3.0 5.0 0.00 0.00 0.00 79 1013.6
20260506060508 45 15 3.0 7.0 0.00 0.00 0.00 78 1013.6
20260506051008 43 11 5.0 8.0 0.00 0.00 0.00 82 1013.0
20260506050508 43 4 5.0 8.0 0.00 0.00 0.00 81 1013.0
20260506045008 43 13 5.0 8.0 0.00 0.00 0.00 81 1013.0
20260506044508 43 11 5.0 9.0 0.00 0.00 0.00 82 1012.9
20260506044008 43 14 5.0 8.0 0.00 0.00 0.00 82 1012.9
20260506043508 43 7 4.0 8.0 0.00 0.00 0.00 82 1012.9
20260506043007 43 6 3.0 7.0 0.00 0.00 0.00 82 1013.0
20260506042507 43 1 5.0 6.0 0.00 0.00 0.00 82 1013.0
20260506041508 42 20 3.0 7.0 0.00 0.00 0.00 83 1012.9
20260506041007 42 15 3.0 5.0 0.00 0.00 0.00 83 1012.8
20260506040508 42 8 2.0 5.0 0.00 0.00 0.00 83 1012.9
20260506040008 42 352 3.0 5.0 0.00 0.00 0.00 83 1012.9
20260506035508 43 352 3.0 5.0 0.00 0.00 0.00 82 1012.9
20260506035007 43 5 3.0 5.0 0.00 0.00 0.00 82 1012.9
20260506034508 43 21 3.0 5.0 0.00 0.00 0.00 81 1013.0
20260506034008 43 11 3.0 3.0 0.00 0.00 0.00 81 1013.0
20260506033508 43 354 3.0 5.0 0.00 0.00 0.00 82 1013.1
20260506033008 43 24 2.0 3.0 0.00 0.00 0.00 82 1013.1
20260506032007 43 25 2.0 6.0 0.00 0.00 0.00 82 1013.3
20260506031508 43 349 4.0 6.0 0.00 0.00 0.00 81 1013.3
20260506031008 43 6 3.0 5.0 0.00 0.00 0.00 81 1013.2
20260506030507 44 355 4.0 7.0 0.00 0.00 0.00 81 1013.2
20260506030008 43 3 3.0 6.0 0.00 0.00 0.00 81 1013.3
20260506025508 43 1 4.0 7.0 0.00 0.00 0.00 81 1013.3
20260506025008 44 359 4.0 6.0 0.00 0.00 0.00 80 1013.2
20260506024508 44 358 3.0 6.0 0.00 0.00 0.00 79 1013.2
20260506024007 44 0 3.0 5.0 0.00 0.00 0.00 80 1013.2
20260506023008 44 10 3.0 3.0 0.00 0.00 0.00 80 1013.2
20260506022508 44 15 0.0 3.0 0.00 0.00 0.00 79 1013.2
20260506021508 45 4 3.0 5.0 0.00 0.00 0.00 78 1013.1
20260506021007 45 24 3.0 5.0 0.00 0.00 0.00 78 1013.2
20260506020507 45 27 2.0 6.0 0.00 0.00 0.00 78 1013.2
20260506020008 45 25 2.0 5.0 0.00 0.00 0.00 78 1013.1
20260506015007 45 16 3.0 7.0 0.00 0.00 0.00 78 1013.1
20260506014508 44 31 3.0 5.0 0.00 0.00 0.00 79 1013.2
20260506014008 44 32 3.0 3.0 0.00 0.00 0.00 79 1013.2
20260506013508 44 19 2.0 3.0 0.00 0.00 0.00 78 1013.1
20260506013008 45 18 1.0 3.0 0.00 0.00 0.00 78 1013.2
20260506012507 45 26 2.0 3.0 0.00 0.00 0.00 78 1013.3
20260506012007 45 14 1.0 3.0 0.00 0.00 0.00 79 1013.2
20260506011008 44 26 2.0 3.0 0.00 0.00 0.00 79 1013.2
20260506010509 44 15 2.0 3.0 0.00 0.00 0.00 79 1013.3
20260506005518 45 13 3.0 5.0 0.00 0.00 0.00 79 1013.3
20260506005018 45 27 2.0 3.0 0.00 0.00 0.00 78 1013.3
20260506004518 45 16 2.0 3.0 0.00 0.00 0.00 78 1013.3
20260506004018 45 8 1.0 3.0 0.00 0.00 0.00 77 1013.3
20260506003518 46 357 2.0 3.0 0.00 0.00 0.00 76 1013.3
20260506003019 46 34 2.0 3.0 0.00 0.00 0.00 76 1013.4
20260506002018 45 36 0.0 3.0 0.00 0.00 0.00 77 1013.5
20260506001519 45 23 0.0 3.0 0.00 0.00 0.00 77 1013.5
20260506001018 45 23 2.0 3.0 0.00 0.00 0.00 77 1013.6
20260506000522 46 16 2.0 3.0 0.00 0.00 0.00 76 1013.5
20260506000018 46 15 3.0 7.0 0.00 0.00 0.00 75 1013.5
20260505235520 46 11 2.0 3.0 0.00 0.00 0.00 74 1013.5
20260505235007 46 5 2.0 3.0 0.00 0.00 0.00 75 1013.5
20260505234519 46 15 0.0 3.0 0.00 0.00 0.00 75 1013.6
20260505234018 46 357 2.0 3.0 0.00 0.00 0.00 75 1013.7
20260505233518 46 8 2.0 5.0 0.00 0.00 0.00 75 1013.7
20260505232518 47 347 3.0 3.0 0.00 0.00 0.00 73 1013.6
20260505232018 47 5 0.0 0.0 0.00 0.00 0.00 73 1013.6
20260505231518 47 5 1.0 3.0 0.00 0.00 0.00 72 1013.5
20260505231018 48 4 2.0 3.0 0.00 0.00 0.00 70 1013.3
20260505230018 48 76 3.0 8.0 0.00 0.00 0.00 71 1013.4
20260505225518 48 61 3.0 7.0 0.00 0.00 0.00 71 1013.4
20260505225018 48 355 5.0 9.0 0.00 0.00 0.00 72 1013.3
20260505224518 48 357 6.0 8.0 0.00 0.00 0.00 71 1013.3
20260505223519 49 2 4.0 8.0 0.00 0.00 0.00 68 1013.3
20260505223018 50 47 4.0 8.0 0.00 0.00 0.00 66 1013.3
20260505222519 50 28 5.0 9.0 0.00 0.00 0.00 66 1013.2
20260505222007 50 29 6.0 12.0 0.00 0.00 0.00 66 1013.2
20260505221518 50 357 8.0 12.0 0.00 0.00 0.00 67 1013.2
20260505221018 50 1 8.0 16.0 0.00 0.00 0.00 65 1013.2
20260505220519 50 358 10.0 14.0 0.00 0.00 0.00 64 1013.2
20260505220018 51 352 12.0 16.0 0.00 0.00 0.00 63 1013.2
20260505215019 50 342 9.0 12.0 0.00 0.00 0.00 61 1013.1
20260505214519 51 343 7.0 12.0 0.00 0.00 0.00 60 1013.2
20260505214018 51 338 8.0 9.0 0.00 0.00 0.00 59 1013.2
20260505213519 51 326 6.0 8.0 0.00 0.00 0.00 60 1013.2
20260505213018 50 329 4.0 6.0 0.00 0.00 0.00 63 1013.1
20260505212018 50 333 5.0 8.0 0.00 0.00 0.00 60 1013.0
20260505211518 50 340 5.0 5.0 0.00 0.00 0.00 61 1013.1
20260505211018 50 345 5.0 5.0 0.00 0.00 0.00 62 1013.1
20260505210508 50 336 3.0 5.0 0.00 0.00 0.00 61 1013.0
20260505210018 51 346 5.0 5.0 0.00 0.00 0.00 60 1013.1
20260505205518 51 357 2.0 3.0 0.00 0.00 0.00 60 1013.1
20260505205018 51 359 2.0 5.0 0.00 0.00 0.00 60 1013.1
20260505204518 51 15 4.0 5.0 0.00 0.00 0.00 59 1013.1
20260505204018 52 3 3.0 3.0 0.00 0.00 0.00 57 1013.0
20260505203518 52 13 3.0 5.0 0.00 0.00 0.00 57 1013.1
20260505203018 52 8 2.0 5.0 0.00 0.00 0.00 57 1012.9
20260505202518 53 318 5.0 6.0 0.00 0.00 0.00 54 1012.8
20260505201518 54 321 8.0 10.0 0.00 0.00 0.00 50 1012.8
20260505201019 54 322 9.0 10.0 0.00 0.00 0.00 51 1012.8
20260505200018 55 338 6.0 8.0 0.00 0.00 0.00 50 1012.7
20260505195518 55 326 6.0 8.0 0.00 0.00 0.00 48 1012.5
20260505195018 54 332 6.0 9.0 0.00 0.00 0.00 49 1012.5
20260505194018 55 317 5.0 8.0 0.00 0.00 0.00 50 1012.2
20260505193518 55 336 6.0 9.0 0.00 0.00 0.00 49 1012.1
20260505193018 56 329 7.0 9.0 0.00 0.00 0.00 48 1012.3
20260505192518 56 325 8.0 9.0 0.00 0.00 0.00 46 1012.2
20260505192017 56 324 8.0 9.0 0.00 0.00 0.00 45 1012.1
20260505191518 57 319 8.0 10.0 0.00 0.00 0.00 44 1012.1
20260505190519 58 317 7.0 9.0 0.00 0.00 0.00 42 1012.0
20260505190018 58 318 7.0 9.0 0.00 0.00 0.00 41 1011.9
20260505184508 59 311 9.0 14.0 0.00 0.00 0.00 38 1011.7
20260505183519 60 310 11.0 17.0 0.00 0.00 0.00 37 1011.7
20260505183018 61 301 10.0 15.0 0.00 0.00 0.00 37 1011.7
20260505182518 61 291 10.0 15.0 0.00 0.00 0.00 36 1011.6
20260505182017 61 292 9.0 17.0 0.00 0.00 0.00 36 1011.6
20260505181518 61 328 9.0 15.0 0.00 0.00 0.00 38 1011.6
20260505180518 61 319 9.0 17.0 0.00 0.00 0.00 37 1011.6
20260505180018 61 310 13.0 17.0 0.00 0.00 0.00 36 1011.5
20260505175518 62 301 9.0 13.0 0.00 0.00 0.00 36 1011.5
20260505175007 62 319 12.0 17.0 0.00 0.00 0.00 35 1011.5
20260505174007 62 308 11.0 17.0 0.00 0.00 0.00 36 1011.5
20260505172517 62 290 10.0 16.0 0.00 0.00 0.00 33 1011.5
20260505171507 62 295 9.0 15.0 0.00 0.00 0.00 34 1011.4
20260505171018 63 310 12.0 16.0 0.00 0.00 0.00 34 1011.4
20260505170518 62 297 10.0 17.0 0.00 0.00 0.00 34 1011.4
20260505170019 63 289 13.0 20.0 0.00 0.00 0.00 33 1011.3
20260505165518 63 300 12.0 16.0 0.00 0.00 0.00 32 1011.3
20260505165018 63 288 11.0 16.0 0.00 0.00 0.00 32 1011.3
20260505164519 63 303 13.0 17.0 0.00 0.00 0.00 32 1011.3
20260505164020 63 287 13.0 17.0 0.00 0.00 0.00 32 1011.3
20260505163018 64 317 9.0 13.0 0.00 0.00 0.00 33 1011.3
20260505162517 63 292 9.0 15.0 0.00 0.00 0.00 30 1011.3
20260505162017 64 288 10.0 16.0 0.00 0.00 0.00 32 1011.4
20260505161517 63 291 12.0 20.0 0.00 0.00 0.00 33 1011.3
20260505153017 64 303 12.0 18.0 0.00 0.00 0.00 33 1011.2
20260505152517 64 286 10.0 16.0 0.00 0.00 0.00 35 1011.3
20260505152018 64 278 9.0 15.0 0.00 0.00 0.00 33 1011.3
20260505151518 64 282 10.0 18.0 0.00 0.00 0.00 32 1011.4
20260505151018 63 280 7.0 20.0 0.00 0.00 0.00 34 1011.4
20260505150518 63 297 14.0 20.0 0.00 0.00 0.00 34 1011.4
20260505140518 64 260 6.0 16.0 0.00 0.00 0.00 35 1011.7